This is the latest recevied weather packets stored in our database for station/object S51UL-6. If no packets are shown the sender has not sent any weather packets the latest 10 day(s).
| Time | Temp. | Humidity | Pressure | Rain* | Wind** | Luminosity | Snow |
|---|---|---|---|---|---|---|---|
| 1787641412 | 17.78° C | 86% | 1014.8 hPa | 0 mm | - | - | - |
| 1787641113 | 17.78° C | 87% | 1014.7 hPa | 0 mm | - | - | - |
| 1787640812 | 17.22° C | 87% | 1014.6 hPa | 0 mm | - | - | - |
| 1787640514 | 17.22° C | 87% | 1014.8 hPa | 0 mm | - | - | - |
| 1787639912 | 16.67° C | 88% | 1014.7 hPa | 0 mm | - | - | - |
| 1787639613 | 16.11° C | 88% | 1014.7 hPa | 0 mm | - | - | - |
| 1787639312 | 16.11° C | 88% | 1014.5 hPa | 0 mm | - | - | - |
| 1787638712 | 15.56° C | 87% | 1014.7 hPa | 0 mm | - | - | - |
| 1787638112 | 15.56° C | 87% | 1014.8 hPa | 0 mm | - | - | - |
| 1787637812 | 15.56° C | 88% | 1014.5 hPa | 0 mm | - | - | - |
| 1787637512 | 15.56° C | 88% | 1014.6 hPa | 0 mm | - | - | - |
| 1787636912 | 15° C | 88% | 1014.5 hPa | 0 mm | - | - | - |
| 1787636313 | 15° C | 88% | 1014.4 hPa | 0 mm | - | - | - |
| 1787636014 | 14.44° C | 88% | 1014.2 hPa | 0 mm | - | - | - |
| 1787635413 | 13.89° C | 88% | 1014.4 hPa | 0 mm | - | - | - |
| 1787635113 | 13.89° C | 88% | 1014.4 hPa | 0 mm | - | - | - |
| 1787634813 | 13.33° C | 88% | 1014.3 hPa | 0 mm | - | - | - |
| 1787634513 | 13.33° C | 88% | 1014.3 hPa | 0 mm | - | - | - |
| 1787634213 | 13.33° C | 88% | 1014.4 hPa | 0 mm | - | - | - |
| 1787633913 | 12.78° C | 88% | 1014.4 hPa | 0 mm | - | - | - |
| 1787633613 | 12.78° C | 87% | 1014.5 hPa | 0 mm | - | - | - |
| 1787633313 | 12.78° C | 87% | 1014.6 hPa | 0 mm | - | - | - |
| 1787632713 | 12.22° C | 87% | 1014.6 hPa | 0 mm | - | - | - |
| 1787632414 | 12.22° C | 87% | 1014.4 hPa | 0 mm | - | - | - |
| 1787631813 | 12.22° C | 87% | 1014.4 hPa | 0 mm | - | - | - |
* Rain latest hour (hover to see other rain measurements)
** Current wind speed in m/s (hover to see current wind gust speed)